This demonstration page uses our WeatherBlox Daily Observations layout. Learn more.

36.17497, -115.13722

Hourly Observations for May 26, 2015

Temp ( °F °C ) Dew Point ( °F °C ) Humidity (%) Winds ( mph kmh ) Pressure ( in mb ) Visibility ( mi km ) Precip ( " mm )
12:53 am 00:53 Clear 76 24.4 40 4.4 27 27 SSW 6 9 29.84 1011 10 16.0934 0 0
1:53 am 01:53 Clear 76 24.4 38 3.3 25 25 SW 8 13 29.83 1010 10 16.0934 0 0
2:53 am 02:53 Clear 73 22.8 38 3.3 28 28 SSE 6 9 29.84 1011 10 16.0934 0 0
3:53 am 03:53 Mostly Cloudy 74 23.3 38 3.3 27 27 SW 6 9 29.85 1011 10 16.0934 0 0
4:53 am 04:53 Mostly Cloudy 70 21.1 41 5 35 35 NNW 5 7 29.87 1012 10 16.0934 0 0
5:53 am 05:53 Mostly Sunny 71 21.7 38 3.3 30 30 E 6 9 29.89 1012 10 16.0934 0 0
6:53 am 06:53 Sunny 73 22.8 40 4.4 30 30 E 9 15 29.9 1013 10 16.0934 0 0
7:53 am 07:53 Sunny 75 23.9 39 3.9 27 27 E 13 20 29.91 1013 10 16.0934 0 0
8:53 am 08:53 Sunny 77 25 38 3.3 24 24 E 9 15 29.91 1013 10 16.0934 0 0
9:53 am 09:53 Sunny 80 26.7 38 3.3 22 22 SSE 10 17 29.91 1013 10 16.0934 0 0
10:53 am 10:53 Sunny 82 27.8 38 3.3 21 21 ESE 8 13 29.91 1013 10 16.0934 0 0
11:53 am 11:53 Sunny 84 28.9 37 2.8 19 19 SE 8 13 29.9 1013 10 16.0934 0 0
12:53 pm 12:53 Sunny 85 29.4 35 1.7 17 17 ESE 9 15 29.88 1012 10 16.0934 0 0
1:53 pm 13:53 Sunny 87 30.6 33 0.6 14 14 S 8 13 29.85 1011 10 16.0934 0 0
2:53 pm 14:53 Sunny 87 30.6 29 -1.7 12 12 VRB 3 6 29.83 1010 10 16.0934 0 0
3:53 pm 15:53 Sunny 90 32.2 28 -2.2 11 11 SE 12 19 29.8 1009 10 16.0934 0 0
4:53 pm 16:53 Mostly Sunny 91 32.8 26 -3.3 9 9 SE 15 24 29.78 1008 10 16.0934 0 0
5:53 pm 17:53 Mostly Sunny 89 31.7 26 -3.3 10 10 SSE 17 28 29.77 1008 10 16.0934 0 0
6:53 pm 18:53 Partly Cloudy 89 31.7 32 0 13 13 SW 5 7 29.78 1008 10 16.0934 0 0
7:53 pm 19:53 Partly Cloudy 86 30 24 -4.4 10 10 SSE 12 19 29.79 1009 10 16.0934 0 0
8:53 pm 20:53 Clear 84 28.9 25 -3.9 11 11 SSE 8 13 29.81 1010 10 16.0934 0 0
9:53 pm 21:53 Clear 82 27.8 28 -2.2 14 14 S 12 19 29.83 1010 10 16.0934 0 0
10:53 pm 22:53 Clear 81 27.2 31 -0.6 16 16 SSW 14 22 29.84 1010 10 16.0934 0 0
11:53 pm 23:53 Clear 79 26.1 31 -0.6 17 17 SSW 9 15 29.84 1011 10 16.0934 0 0

Powered by AerisWeather